Oconto, WI

4:08 PM CDT on September 22, 2019 (GMT -0500)
Oconto Municipal

Weather History for KOCQ - June, 2019

Change the Weather History Date:

Tuesday, June 4, 2019

  Actual Average Record
Temperature  
Mean Temperature 63 °F -  
Max Temperature 77 °F 73 °F 86 °F (2017)
Min Temperature 49 °F 47 °F 46 °F (2013)
Degree Days  
Heating Degree Days 2    
Growing Degree Days 13 (Base 50)    
Moisture  
Dew Point 52 °F    
Average Humidity 66    
Maximum Humidity 83    
Minimum Humidity 55    
Precipitation  
Precipitation 0.00 in - - ()
Sea Level Pressure  
Sea Level Pressure 29.83 in    
Wind  
Wind Speed 6 mph (SSW)    
Max Wind Speed 14 mph    
Max Gust Speed 22 mph    
Visibility 10 miles    
Events      
Averages and records for this station are not official NWS values.
T = Trace of Precipitation, MM = Missing Value Source: NWS Daily Summary

Daily Weather History Graph

Daily Weather History Graph

Search for Another Location

Airport or City:

Astronomy

Jun. 04, 2019 Rise Set
Actual Time 5:07 AM CDT 8:33 PM CDT
Civil Twilight 4:30 AM CDT 9:09 PM CDT
Nautical Twilight 3:43 AM CDT 9:57 PM CDT
Astronomical Twilight 2:42 AM CDT 10:58 PM CDT
Moon 6:16 AM CDT (6/4) 10:00 PM CDT (6/4)
Length of Visible Light 16h 38m
Length of Day
15h 25m
New Moon, 2% of the Moon is Illuminated
Jun 4
New Moon
Jun 10
First Quarter
Jun 17
Full
Jun 25
Last Quarter
Jul 2
New

Hourly Weather History & Observations

Time (CDT) Temp. Dew Point Humidity Pressure Visibility Wind Dir Wind Speed Gust Speed Precip Events Conditions
12:15 AM 53.2 °F 38.8 °F 58% 30.01 in 10.0 mi South 6.9 mph - N/A   Mostly Cloudy
12:35 AM 52.9 °F 39.6 °F 61% 30.00 in 10.0 mi South 5.8 mph - N/A   Scattered Clouds
12:55 AM 52.9 °F 39.4 °F 60% 30.01 in 10.0 mi South 4.6 mph - N/A   Mostly Cloudy
1:15 AM 52.9 °F 38.8 °F 59% 30.00 in 10.0 mi South 4.6 mph - N/A   Mostly Cloudy
1:35 AM 52.9 °F 39.0 °F 59% 29.99 in 10.0 mi South 4.6 mph - N/A   Mostly Cloudy
1:55 AM 53.1 °F 39.4 °F 60% 29.99 in 10.0 mi SSW 3.5 mph - N/A   Overcast
2:15 AM 53.2 °F 39.9 °F 61% 29.99 in 10.0 mi Calm Calm - N/A   Overcast
2:35 AM 51.8 °F 41.0 °F 67% 29.99 in 10.0 mi SSW 3.5 mph - N/A   Overcast
2:55 AM 52.5 °F 39.2 °F 61% 29.98 in 10.0 mi Calm Calm - N/A   Mostly Cloudy
3:15 AM 51.3 °F 38.5 °F 62% 29.97 in 10.0 mi South 3.5 mph - N/A   Mostly Cloudy
3:35 AM 51.3 °F 37.9 °F 60% 29.96 in 10.0 mi Calm Calm - N/A   Mostly Cloudy
3:55 AM 50.4 °F 38.1 °F 63% 29.95 in 10.0 mi Calm Calm - N/A   Mostly Cloudy
4:15 AM 50.4 °F 38.5 °F 64% 29.94 in 10.0 mi Calm Calm - N/A   Scattered Clouds
4:35 AM 50.2 °F 39.2 °F 66% 29.94 in 10.0 mi Calm Calm - N/A   Mostly Cloudy
4:55 AM 49.1 °F 39.6 °F 70% 29.93 in 10.0 mi Calm Calm - N/A   Scattered Clouds
5:15 AM 49.1 °F 40.1 °F 71% 29.93 in 10.0 mi Calm Calm - N/A   Clear
5:35 AM 49.5 °F 40.5 °F 71% 29.92 in 10.0 mi Calm Calm - N/A   Clear
5:55 AM 50.2 °F 41.4 °F 72% 29.92 in 10.0 mi SW 4.6 mph - N/A   Clear
6:15 AM 51.6 °F 42.6 °F 71% 29.91 in 10.0 mi SW 4.6 mph - N/A   Clear
6:35 AM 53.1 °F 43.5 °F 70% 29.92 in 10.0 mi SW 5.8 mph - N/A   Clear
6:55 AM 54.3 °F 44.1 °F 68% 29.91 in 10.0 mi SW 5.8 mph - N/A   Clear
7:15 AM 55.8 °F 45.1 °F 67% 29.91 in 10.0 mi SW 6.9 mph - N/A   Clear
7:35 AM 57.0 °F 46.0 °F 67% 29.91 in 10.0 mi SW 5.8 mph - N/A   Clear
7:55 AM 58.5 °F 47.3 °F 66% 29.90 in 10.0 mi WSW 8.1 mph - N/A   Clear
8:15 AM 60.4 °F 48.6 °F 65% 29.90 in 10.0 mi SW 5.8 mph - N/A   Clear
8:35 AM 62.4 °F 50.0 °F 64% 29.89 in 10.0 mi SW 8.1 mph - N/A   Clear
8:55 AM 64.8 °F 51.3 °F 62% 29.89 in 10.0 mi SW 10.4 mph - N/A   Clear
9:15 AM 66.0 °F 52.5 °F 62% 29.89 in 10.0 mi SW 11.5 mph - N/A   Clear
9:35 AM 67.8 °F 53.6 °F 60% 29.88 in 10.0 mi WSW 11.5 mph 20.7 mph N/A   Clear
9:55 AM 68.4 °F 54.1 °F 60% 29.87 in 10.0 mi West 10.4 mph - N/A   Clear
10:15 AM 69.3 °F 54.7 °F 60% 29.87 in 10.0 mi WSW 11.5 mph 19.6 mph N/A   Clear
10:35 AM 70.2 °F 55.2 °F 59% 29.87 in 10.0 mi West 11.5 mph 18.4 mph N/A   Clear
10:55 AM 71.1 °F 55.9 °F 59% 29.86 in 10.0 mi West 9.2 mph 19.6 mph N/A   Clear
11:15 AM 72.7 °F 57.2 °F 58% 29.85 in 10.0 mi West 11.5 mph 17.3 mph N/A   Clear
11:35 AM 74.1 °F 57.0 °F 55% 29.84 in 10.0 mi SW 13.8 mph 19.6 mph N/A   Clear
11:55 AM 74.5 °F 57.2 °F 55% 29.83 in 10.0 mi SW 10.4 mph - N/A   Clear
12:15 PM 75.0 °F 58.1 °F 56% 29.83 in 10.0 mi WSW 13.8 mph 18.4 mph N/A   Clear
12:35 PM 75.0 °F 58.8 °F 57% 29.81 in 10.0 mi WSW 10.4 mph 17.3 mph N/A   Clear
12:55 PM 76.1 °F 59.0 °F 55% 29.81 in 10.0 mi WSW 10.4 mph 21.9 mph N/A   Scattered Clouds
1:15 PM 75.7 °F 59.2 °F 56% 29.80 in 10.0 mi SW 11.5 mph 17.3 mph N/A   Scattered Clouds
1:35 PM 77.0 °F 59.7 °F 55% 29.79 in 10.0 mi WSW 12.7 mph 19.6 mph N/A   Mostly Cloudy
1:55 PM 77.0 °F 60.3 °F 56% 29.79 in 10.0 mi WSW 8.1 mph - N/A   Scattered Clouds
2:15 PM 76.8 °F 60.1 °F 56% 29.78 in 10.0 mi WSW 8.1 mph - N/A   Scattered Clouds
2:35 PM 76.1 °F 60.6 °F 59% 29.77 in 10.0 mi SW 9.2 mph 19.6 mph N/A   Overcast
2:55 PM 75.7 °F 61.0 °F 60% 29.76 in 10.0 mi SSW 9.2 mph - N/A   Overcast
3:15 PM 75.4 °F 61.0 °F 61% 29.76 in 10.0 mi South 9.2 mph - N/A   Overcast
3:35 PM 76.1 °F 61.3 °F 60% 29.75 in 10.0 mi SSE 9.2 mph 17.3 mph N/A   Overcast
3:55 PM 74.1 °F 61.3 °F 64% 29.74 in 10.0 mi South 10.4 mph - N/A   Mostly Cloudy
4:15 PM 73.4 °F 61.2 °F 65% 29.74 in 10.0 mi South 8.1 mph - N/A   Mostly Cloudy
4:35 PM 72.9 °F 61.7 °F 68% 29.75 in 10.0 mi South 8.1 mph - N/A   Overcast
4:55 PM 71.6 °F 61.2 °F 70% 29.75 in 10.0 mi South 8.1 mph - N/A   Overcast
5:15 PM 72.1 °F 61.3 °F 69% 29.74 in 10.0 mi South 8.1 mph - N/A   Overcast
5:35 PM 72.5 °F 61.9 °F 69% 29.73 in 10.0 mi SSE 5.8 mph - N/A   Overcast
5:55 PM 73.4 °F 62.8 °F 69% 29.73 in 10.0 mi South 5.8 mph - N/A   Overcast
6:15 PM 73.4 °F 61.9 °F 67% 29.73 in 10.0 mi WSW 10.4 mph - N/A   Mostly Cloudy
6:35 PM 72.9 °F 62.1 °F 69% 29.72 in 10.0 mi SW 5.8 mph - N/A   Overcast
6:55 PM 72.5 °F 61.9 °F 69% 29.72 in 10.0 mi SW 5.8 mph - N/A   Overcast
7:15 PM 72.0 °F 61.9 °F 70% 29.72 in 10.0 mi WSW 4.6 mph - N/A   Overcast
7:35 PM 71.2 °F 61.9 °F 72% 29.72 in 10.0 mi Calm Calm - N/A   Overcast
7:55 PM 70.5 °F 62.2 °F 75% 29.72 in 10.0 mi South 3.5 mph - N/A   Overcast
8:15 PM 70.0 °F 62.6 °F 77% 29.71 in 10.0 mi Calm Calm - N/A   Overcast
8:35 PM 67.3 °F 58.8 °F 74% 29.71 in 10.0 mi SSE 6.9 mph - N/A   Overcast
8:55 PM 65.7 °F 58.1 °F 77% 29.71 in 10.0 mi SSE 4.6 mph - N/A   Overcast
9:15 PM 65.3 °F 57.0 °F 75% 29.71 in 10.0 mi SSE 5.8 mph - N/A   Overcast
9:35 PM 64.8 °F 56.7 °F 75% 29.71 in 10.0 mi SSE 4.6 mph - N/A   Overcast
9:55 PM 64.6 °F 56.7 °F 75% 29.71 in 10.0 mi South 3.5 mph - N/A   Overcast
10:15 PM 64.0 °F 56.7 °F 77% 29.70 in 10.0 mi SE 3.5 mph - N/A   Overcast
10:35 PM 63.9 °F 56.8 °F 78% 29.71 in 10.0 mi Calm Calm - N/A   Overcast
10:55 PM 63.5 °F 56.8 °F 79% 29.71 in 10.0 mi Calm Calm - N/A   Overcast
11:15 PM 63.5 °F 56.8 °F 79% 29.70 in 10.0 mi Calm Calm - N/A   Overcast
11:35 PM 63.5 °F 57.4 °F 80% 29.70 in 10.0 mi Calm Calm - N/A   Overcast
11:55 PM 63.0 °F 57.7 °F 83% 29.68 in 10.0 mi Calm Calm - N/A   Mostly Cloudy